{"data":{"norad_id":62115,"epoch":"2026-05-25T03:26:33.395712Z","epoch_age_seconds":66127,"freshness":"FRESH","line1":"1 62115U 24222B   26145.14344208  .00011887  00000+0  44056-3 0  9997","line2":"2 62115  43.0004  64.2410 0001183 266.7677  93.3039 15.27597827 84595","mean_motion":15.27597827,"eccentricity":0.0001183,"inclination_deg":43.0004,"raan_deg":64.241,"arg_perigee_deg":266.7677,"mean_anomaly_deg":93.3039,"bstar":0.00044056,"rev_number":8459,"period_min":94.265648624807,"perigee_km":482.18404410723,"apogee_km":483.80738810786,"semimajor_km":6861.1327161075,"source":"CELESTRAK","updated_at":"2026-05-25T13:38:19.562161Z"}}